Paris / Charles De Gaulle, France

2:52 PM CEST on July 27, 2017 (GMT +0200)
Charles de Gaulle

Weather History for LFPG - August, 2013

Change the Weather History Date:

Saturday, August 3, 2013

  Actual Average Record
Temperature  
Mean Temperature 71 °F -  
Max Temperature 78 °F 74 °F 92 °F (2015)
Min Temperature 64 °F 56 °F -9 °F (2003)
Cooling Degree Days 6    
Growing Degree Days 21 (Base 50)    
Moisture  
Dew Point 52 °F    
Average Humidity 50    
Maximum Humidity 73    
Minimum Humidity 32    
Precipitation  
Precipitation 0.00 in - - ()
Sea Level Pressure  
Sea Level Pressure 30.07 in    
Wind  
Wind Speed 9 mph ()    
Max Wind Speed 15 mph    
Max Gust Speed -    
Visibility 6.2 miles    
Events Rain , Thunderstorm    
Averages and records for this station are not official NWS values.
T = Trace of Precipitation, MM = Missing Value Source: Averaged Metar Reports

Daily Weather History Graph

Daily Weather History Graph

Search for Another Location

Airport or City:

Trip Planner

Search our weather history database for the weather conditions in past years. The results will help you decide how hot, cold, wet, or windy it might be!

Date:

Astronomy

Aug. 03, 2013 Rise Set
Actual Time 6:25 AM CEST 9:25 PM CEST
Civil Twilight 5:48 AM CEST 10:02 PM CEST
Nautical Twilight 5:00 AM CEST 10:50 PM CEST
Astronomical Twilight 4:00 AM CEST 11:49 PM CEST
Moon 3:18 AM CEST (8/3) 7:00 PM CEST (8/3)
Length of Visible Light 16h 14m
Length of Day
15h 00m
Waning Crescent, 11% of the Moon is Illuminated
Aug 3
Waning Crescent
Aug 6
New
Aug 14
First Quarter
Aug 21
Full
Aug 28
Last Quarter

Hourly Weather History & Observations

Time (CEST) Temp. Dew Point Humidity Pressure Visibility Wind Dir Wind Speed Gust Speed Precip Events Conditions
12:00 AM 75.2 °F 59.0 °F 57% 29.95 in 6.2 mi WSW 5.8 mph - N/A Rain Light Rain Showers
12:30 AM 75.2 °F 60.8 °F 61% 29.98 in 6.2 mi SW 10.4 mph - N/A Rain , Thunderstorm Light Thunderstorms and Rain
1:00 AM 73.4 °F 62.6 °F 69% 29.95 in 6.2 mi WSW 8.1 mph - N/A   Mostly Cloudy
1:30 AM 71.6 °F 62.6 °F 73% 29.95 in - SW 8.1 mph - N/A   Clear
2:00 AM 71.6 °F 62.6 °F 73% 29.95 in - West 4.6 mph - N/A   Clear
2:30 AM 71.6 °F 60.8 °F 69% 29.95 in - WSW 9.2 mph - N/A   Clear
3:00 AM 71.6 °F 59.0 °F 64% 29.95 in - SW 8.1 mph - N/A   Clear
3:30 AM 71.6 °F 57.2 °F 60% 29.95 in - SW 9.2 mph - N/A   Clear
4:00 AM 69.8 °F 55.4 °F 60% 29.98 in - West 13.8 mph - N/A   Clear
4:30 AM 68.0 °F 55.4 °F 64% 29.98 in - WSW 13.8 mph - N/A   Clear
5:00 AM 68.0 °F 55.4 °F 64% 30.01 in - WSW 11.5 mph - N/A   Clear
5:30 AM 66.2 °F 55.4 °F 68% 30.01 in - WSW 11.5 mph - N/A   Clear
6:00 AM 66.2 °F 55.4 °F 68% 30.01 in - WSW 10.4 mph - N/A   Clear
6:30 AM 66.2 °F 53.6 °F 64% 30.04 in - WSW 13.8 mph - N/A   Clear
7:00 AM 64.4 °F 53.6 °F 68% 30.04 in - WSW 12.7 mph - N/A   Clear
7:30 AM 64.4 °F 53.6 °F 68% 30.06 in - WSW 11.5 mph - N/A   Clear
8:00 AM 64.4 °F 53.6 °F 68% 30.06 in 6.2 mi WSW 10.4 mph - N/A   Partly Cloudy
8:30 AM 66.2 °F 53.6 °F 64% 30.06 in 6.2 mi West 10.4 mph - N/A   Partly Cloudy
9:00 AM 66.2 °F 53.6 °F 64% 30.09 in 6.2 mi WSW 15.0 mph - N/A   Partly Cloudy
9:30 AM 68.0 °F 53.6 °F 60% 30.09 in 6.2 mi West 13.8 mph - N/A   Partly Cloudy
10:00 AM 68.0 °F 53.6 °F 60% 30.09 in 6.2 mi West 15.0 mph - N/A   Partly Cloudy
10:30 AM 69.8 °F 53.6 °F 56% 30.09 in 6.2 mi WSW 11.5 mph - N/A   Scattered Clouds
11:00 AM 71.6 °F 51.8 °F 50% 30.12 in 6.2 mi SW 13.8 mph - N/A   Scattered Clouds
11:30 AM 71.6 °F 50.0 °F 46% 30.12 in 6.2 mi WSW 11.5 mph - N/A   Scattered Clouds
12:00 PM 73.4 °F 50.0 °F 44% 30.12 in 6.2 mi SW 12.7 mph - N/A   Scattered Clouds
12:30 PM 73.4 °F 50.0 °F 44% 30.12 in 6.2 mi WSW 10.4 mph - N/A   Scattered Clouds
1:00 PM 73.4 °F 48.2 °F 41% 30.12 in 6.2 mi WSW 10.4 mph - N/A   Partly Cloudy
1:30 PM 75.2 °F 51.8 °F 44% 30.12 in 6.2 mi West 10.4 mph - N/A   Scattered Clouds
2:00 PM 77.0 °F 48.2 °F 36% 30.12 in 6.2 mi WSW 11.5 mph - N/A   Scattered Clouds
2:30 PM 75.2 °F 48.2 °F 38% 30.12 in 6.2 mi WSW 11.5 mph - N/A   Scattered Clouds
3:00 PM 77.0 °F 46.4 °F 34% 30.12 in - West 10.4 mph - N/A   Clear
3:30 PM 78.8 °F 46.4 °F 32% 30.12 in - West 9.2 mph - N/A   Clear
4:00 PM 77.0 °F 44.6 °F 32% 30.12 in - WSW 10.4 mph - N/A   Clear
4:30 PM 77.0 °F 46.4 °F 34% 30.12 in - WSW 12.7 mph - N/A   Clear
5:00 PM 77.0 °F 46.4 °F 34% 30.12 in - West 11.5 mph - N/A   Clear
5:30 PM 78.8 °F 48.2 °F 34% 30.12 in - WSW 8.1 mph - N/A   Clear
6:00 PM 77.0 °F 46.4 °F 34% 30.12 in - West 10.4 mph - N/A   Clear
6:30 PM 78.8 °F 46.4 °F 32% 30.12 in - West 8.1 mph - N/A   Clear
7:00 PM 78.8 °F 46.4 °F 32% 30.12 in - West 8.1 mph - N/A   Clear
7:30 PM 77.0 °F 46.4 °F 34% 30.12 in - West 6.9 mph - N/A   Clear
8:00 PM 77.0 °F 46.4 °F 34% 30.12 in - West 6.9 mph - N/A   Clear
8:30 PM 77.0 °F 46.4 °F 34% 30.12 in - West 6.9 mph - N/A   Clear
9:00 PM 75.2 °F 48.2 °F 38% 30.12 in - West 5.8 mph - N/A   Clear
9:30 PM 73.4 °F 46.4 °F 38% 30.12 in - West 4.6 mph - N/A   Clear
10:00 PM 71.6 °F 48.2 °F 43% 30.15 in - West 2.3 mph - N/A   Clear
10:30 PM 71.6 °F 46.4 °F 41% 30.15 in - Calm Calm - N/A   Clear
11:00 PM 71.6 °F 46.4 °F 41% 30.15 in - West 4.6 mph - N/A   Clear
11:30 PM 69.8 °F 48.2 °F 46% 30.15 in - Variable 1.2 mph - N/A   Clear